FW3814 Weather Reports


Display with metric or nautical units.
time (UTC)temp
F
wind
direction
speed
MPH
gust
MPH
rain 1hr
in
rain 24hr
in
rain mn
in
humidity
%
barometer
mb
20260509143004 75 236 6.0 10.0 0.00 0.08 0.00 39 1013.3
20260509142504 74 257 8.0 10.0 0.00 0.09 0.00 38 1013.2
20260509142004 75 238 6.0 10.0 0.00 0.09 0.00 39 1013.3
20260509141504 75 205 5.0 10.0 0.00 0.11 0.00 40 1013.4
20260509141004 74 157 6.0 8.0 0.00 0.13 0.00 40 1013.4
20260509140504 74 158 6.0 7.0 0.00 0.14 0.00 40 1013.4
20260509140005 74 198 7.0 12.0 0.00 0.20 0.00 40 1013.5
20260509135504 74 198 6.0 12.0 0.00 0.34 0.00 40 1013.5
20260509135004 74 258 5.0 10.0 0.00 0.37 0.00 40 1013.6
20260509134504 74 252 6.0 10.0 0.00 0.38 0.00 40 1013.7
20260509134004 74 209 7.0 12.0 0.00 0.38 0.00 40 1013.7
20260509133504 74 213 7.0 12.0 0.00 0.39 0.00 40 1013.9
20260509133004 74 200 4.0 9.0 0.00 0.39 0.00 40 1013.9
20260509132504 74 212 5.0 9.0 0.00 0.41 0.00 40 1013.9
20260509132004 74 268 4.0 9.0 0.00 0.41 0.00 40 1014.0
20260509131525 74 305 4.0 6.0 0.00 0.41 0.00 41 1014.1
20260509131004 74 265 4.0 6.0 0.00 0.41 0.00 41 1014.0
20260509130504 73 220 6.0 11.0 0.00 0.41 0.00 40 1013.9
20260509130004 73 221 8.0 11.0 0.00 0.41 0.00 40 1014.1
20260509125504 73 254 8.0 11.0 0.00 0.41 0.00 40 1014.2
20260509125004 74 263 7.0 11.0 0.00 0.41 0.00 41 1014.2
20260509124504 73 267 6.0 11.0 0.00 0.41 0.00 41 1014.1
20260509124004 73 294 4.0 8.0 0.00 0.41 0.00 41 1014.2
20260509123504 73 267 4.0 11.0 0.00 0.41 0.00 42 1014.1
20260509123004 73 268 7.0 11.0 0.00 0.41 0.00 41 1014.2
20260509122504 73 288 8.0 11.0 0.00 0.41 0.00 41 1014.1
20260509122004 73 270 7.0 11.0 0.00 0.41 0.00 41 1014.1
20260509121504 73 234 5.0 8.0 0.00 0.41 0.00 41 1014.3
20260509121025 73 197 5.0 8.0 0.00 0.41 0.00 41 1014.2
20260509120504 73 228 5.0 8.0 0.00 0.41 0.00 41 1014.3
20260509120025 73 240 4.0 8.0 0.00 0.41 0.00 41 1014.2
20260509115504 72 215 4.0 8.0 0.00 0.41 0.00 42 1014.4
20260509115004 72 186 5.0 8.0 0.00 0.41 0.00 44 1014.3
20260509114504 72 113 5.0 7.0 0.00 0.41 0.00 44 1014.4
20260509114025 72 123 5.0 7.0 0.00 0.41 0.00 44 1014.5
20260509113504 72 151 3.0 5.0 0.00 0.41 0.00 46 1014.5
20260509113004 72 215 3.0 5.0 0.00 0.41 0.00 48 1014.5
20260509112525 72 268 3.0 7.0 0.00 0.41 0.00 48 1014.6
20260509112004 72 279 3.0 7.0 0.00 0.41 0.00 47 1014.7
20260509111504 72 236 4.0 8.0 0.00 0.41 0.00 48 1014.7
20260509111004 72 216 6.0 8.0 0.00 0.41 0.00 49 1014.8
20260509110504 72 229 7.0 8.0 0.00 0.41 0.00 49 1014.9
20260509110025 72 287 7.0 8.0 0.00 0.41 0.00 49 1015.0
20260509105504 72 290 6.0 8.0 0.00 0.41 0.00 50 1015.0
20260509105004 72 264 5.0 8.0 0.00 0.41 0.00 50 1015.2
20260509104504 72 290 3.0 8.0 0.00 0.41 0.00 50 1015.3
20260509104004 71 305 4.0 7.0 0.00 0.41 0.00 50 1015.3
20260509103504 71 297 5.0 7.0 0.00 0.41 0.00 50 1015.3
20260509103004 71 298 4.0 7.0 0.00 0.41 0.00 51 1015.3
20260509102540 71 281 4.0 6.0 0.00 0.41 0.00 51 1015.5
20260509102004 71 263 5.0 7.0 0.00 0.41 0.00 51 1015.5
20260509101525 70 289 5.0 7.0 0.00 0.41 0.00 50 1015.5
20260509101004 70 359 5.0 5.0 0.00 0.41 0.00 50 1015.5
20260509100504 70 40 4.0 5.0 0.00 0.41 0.00 50 1015.6
20260509100005 70 113 4.0 6.0 0.00 0.41 0.00 50 1015.6
20260509095504 70 190 4.0 6.0 0.00 0.41 0.00 51 1015.7
20260509095004 70 195 5.0 6.0 0.00 0.41 0.00 52 1015.7
20260509094525 70 167 4.0 6.0 0.00 0.41 0.00 52 1015.7
20260509094025 70 341 3.0 4.0 0.00 0.41 0.00 53 1015.8
20260509093504 69 353 4.0 6.0 0.00 0.41 0.00 52 1015.8
20260509093025 69 1 4.0 6.0 0.00 0.41 0.00 52 1015.8
20260509092505 69 31 2.0 4.0 0.00 0.41 0.00 54 1015.7
20260509091525 69 357 2.0 4.0 0.00 0.41 0.00 55 1015.7
20260509091025 69 7 1.0 3.0 0.00 0.41 0.00 55 1015.8
20260509090504 68 335 1.0 4.0 0.00 0.41 0.00 55 1015.9
20260509090004 68 322 3.0 4.0 0.00 0.41 0.00 55 1015.7
20260509085504 68 316 2.0 4.0 0.00 0.41 0.00 56 1015.9
20260509085004 68 12 2.0 3.0 0.00 0.41 0.00 58 1015.9
20260509084504 68 39 3.0 4.0 0.00 0.41 0.00 58 1015.9
20260509084004 68 153 3.0 4.0 0.00 0.41 0.00 57 1015.9
20260509083504 68 119 2.0 4.0 0.00 0.41 0.00 58 1015.9
20260509083004 68 43 2.0 3.0 0.00 0.41 0.00 60 1015.9
20260509082504 67 24 2.0 3.0 0.00 0.41 0.00 61 1016.0
20260509082004 67 350 1.0 3.0 0.00 0.41 0.00 61 1015.7
20260509081504 67 7 1.0 4.0 0.00 0.41 0.00 61 1015.8
20260509081004 66 63 3.0 4.0 0.00 0.41 0.00 62 1015.9
20260509080504 66 69 3.0 4.0 0.00 0.41 0.00 62 1016.0
20260509080004 66 38 3.0 4.0 0.00 0.41 0.00 62 1016.0
20260509075504 65 40 3.0 4.0 0.00 0.41 0.00 62 1016.0
20260509075025 65 43 3.0 5.0 0.00 0.41 0.00 63 1016.0
20260509074504 65 29 4.0 5.0 0.00 0.41 0.00 63 1016.0
20260509074004 65 25 3.0 4.0 0.00 0.41 0.00 64 1016.2
20260509073504 65 21 2.0 4.0 0.00 0.41 0.00 65 1015.9
20260509073004 65 50 2.0 4.0 0.00 0.41 0.00 66 1016.1
20260509072525 64 59 3.0 4.0 0.00 0.41 0.00 66 1015.9
20260509072004 64 61 2.0 3.0 0.00 0.41 0.00 68 1016.0
20260509071525 64 52 2.0 5.0 0.00 0.41 0.00 69 1016.0
20260509071004 63 42 1.0 5.0 0.00 0.41 0.00 72 1016.0
20260509070504 63 315 0.0 1.0 0.00 0.41 0.00 74 1016.0
20260509070004 63 355 0.0 2.0 0.00 0.41 0.00 74 1016.0
20260509065525 62 14 1.0 2.0 0.00 0.41 0.00 74 1015.9
20260509065004 61 11 2.0 4.0 0.00 0.41 0.00 74 1015.9
20260509064524 61 6 3.0 4.0 0.00 0.41 0.00 74 1016.1
20260509064025 60 4 3.0 4.0 0.00 0.41 0.00 74 1016.0
20260509063504 60 359 4.0 4.0 0.00 0.41 0.00 75 1015.9
20260509063004 59 357 4.0 7.0 0.00 0.41 0.00 75 1016.0
20260509062504 59 11 5.0 7.0 0.00 0.41 0.00 76 1016.0
20260509062004 58 15 4.0 5.0 0.00 0.41 0.00 77 1015.8
20260509061525 58 4 4.0 5.0 0.00 0.41 0.00 77 1015.9
20260509061004 57 4 4.0 5.0 0.00 0.41 0.00 78 1015.9
20260509060504 57 2 3.0 5.0 0.00 0.41 0.00 78 1016.0
20260509060004 57 356 3.0 5.0 0.00 0.41 0.00 78 1015.9
20260509055525 56 354 4.0 5.0 0.00 0.41 0.00 78 1015.8
20260509055004 56 360 4.0 4.0 0.00 0.41 0.00 78 1016.0
20260509054525 56 358 3.0 4.0 0.00 0.41 0.00 79 1015.7
20260509054025 56 1 3.0 4.0 0.00 0.41 0.00 79 1015.8
20260509053504 56 4 3.0 4.0 0.00 0.41 0.00 80 1015.9
20260509053004 55 7 3.0 4.0 0.00 0.41 0.00 80 1016.0
20260509052519 55 14 4.0 5.0 0.00 0.41 0.00 81 1016.0
20260509052004 54 19 3.0 5.0 0.00 0.41 0.00 81 1016.0
20260509051504 54 9 3.0 4.0 0.00 0.41 0.00 84 1015.6
20260509051004 54 360 3.0 3.0 0.00 0.41 0.00 84 1015.8
20260509050504 53 351 2.0 3.0 0.00 0.41 0.00 84 1015.8
20260509050004 53 335 2.0 3.0 0.00 0.41 0.00 84 1015.8
20260509045525 53 326 3.0 4.0 0.00 0.41 0.00 85 1015.7
20260509045004 53 343 4.0 5.0 0.00 0.41 0.00 85 1015.5
20260509044504 53 7 5.0 6.0 0.00 0.41 0.00 86 1015.5
20260509044004 52 18 5.0 6.0 0.00 0.41 0.00 86 1015.2
20260509043504 52 17 5.0 8.0 0.00 0.41 0.00 87 1015.1
20260509043004 51 16 5.0 8.0 0.00 0.41 0.00 86 1015.2
20260509042504 51 18 5.0 5.0 0.00 0.41 0.00 86 1015.2
20260509042004 51 10 4.0 5.0 0.00 0.41 0.00 86 1015.2
20260509041525 51 3 4.0 4.0 0.00 0.41 0.00 85 1015.1
20260509041004 51 359 4.0 4.0 0.00 0.41 0.00 85 1015.0
20260509040504 51 356 4.0 4.0 0.00 0.41 0.00 84 1014.9
20260509040004 51 357 4.0 4.0 0.00 0.41 0.00 84 1014.9
20260509035504 51 4 3.0 4.0 0.00 0.41 0.00 84 1015.0
20260509035003 51 8 4.0 4.0 0.00 0.41 0.00 83 1015.0
20260509034525 51 11 4.0 5.0 0.00 0.41 0.00 83 1014.9
20260509034004 51 16 5.0 7.0 0.00 0.41 0.00 82 1014.8
20260509033504 51 19 6.0 7.0 0.00 0.41 0.00 82 1014.9
20260509033004 52 18 6.0 7.0 0.00 0.41 0.00 81 1015.0
20260509032504 52 16 6.0 8.0 0.00 0.41 0.00 81 1014.9
20260509032004 53 13 6.0 8.0 0.00 0.41 0.00 81 1015.0
20260509031504 53 8 5.0 7.0 0.00 0.41 0.00 81 1014.9
20260509031025 53 13 6.0 8.0 0.00 0.41 0.00 81 1015.0
20260509030504 53 11 5.0 8.0 0.00 0.41 0.00 81 1015.0
20260509030004 53 9 4.0 5.0 0.00 0.41 0.00 82 1015.2
20260509025504 53 20 4.0 5.0 0.00 0.41 0.00 82 1015.2
20260509025004 53 25 4.0 6.0 0.00 0.41 0.00 82 1015.1
20260509024504 53 28 5.0 8.0 0.00 0.41 0.00 83 1015.0
20260509024004 53 33 5.0 8.0 0.00 0.41 0.00 83 1015.0
20260509023504 53 25 4.0 5.0 0.00 0.41 0.00 83 1014.9
20260509023004 53 24 4.0 5.0 0.00 0.41 0.00 83 1014.7
20260509022504 53 23 4.0 5.0 0.00 0.41 0.00 83 1014.8
20260509022004 53 10 4.0 4.0 0.00 0.41 0.00 84 1014.8
20260509021504 53 14 4.0 7.0 0.00 0.41 0.00 84 1014.9
20260509021004 53 21 6.0 7.0 0.00 0.41 0.00 85 1014.9
20260509020525 53 18 7.0 8.0 0.00 0.41 0.00 86 1014.9
20260509020004 53 17 6.0 8.0 0.00 0.41 0.00 86 1015.2
20260509015504 53 14 6.0 7.0 0.00 0.41 0.00 86 1015.0
20260509015003 53 11 6.0 7.0 0.00 0.41 0.00 86 1015.3
20260509014524 53 14 5.0 6.0 0.00 0.41 0.00 86 1015.1
20260509014004 53 9 4.0 6.0 0.00 0.41 0.00 86 1015.2
20260509013504 53 5 4.0 5.0 0.00 0.41 0.00 85 1015.3
20260509013004 53 7 4.0 5.0 0.00 0.41 0.00 85 1015.3
20260509012504 52 9 3.0 4.0 0.00 0.41 0.00 85 1015.5
20260509012004 52 12 3.0 4.0 0.00 0.41 0.00 84 1015.2
20260509011524 52 13 3.0 4.0 0.00 0.41 0.00 84 1015.5
20260509011025 53 4 4.0 4.0 0.00 0.41 0.00 83 1015.5
20260509010504 53 3 4.0 4.0 0.00 0.41 0.00 83 1015.2
20260509010004 53 10 5.0 8.0 0.00 0.41 0.00 83 1015.5
20260509005524 53 15 6.0 8.0 0.00 0.41 0.00 82 1015.3
20260509005004 53 14 6.0 7.0 0.00 0.41 0.00 82 1015.2
20260509004503 54 11 5.0 6.0 0.00 0.41 0.00 82 1015.3
20260509004003 54 8 5.0 6.0 0.00 0.41 0.00 82 1015.3
20260509003503 54 9 5.0 5.0 0.00 0.41 0.00 79 1015.2
20260509003025 54 13 4.0 5.0 0.00 0.41 0.00 80 1015.5
20260509002504 54 12 5.0 6.0 0.00 0.41 0.00 80 1015.3
20260509002025 54 14 5.0 6.0 0.00 0.41 0.00 79 1015.3
20260509001504 54 10 3.0 4.0 0.00 0.41 0.00 79 1015.2
20260509001004 55 338 2.0 3.0 0.00 0.41 0.00 79 1015.2
20260509000504 55 352 3.0 4.0 0.00 0.41 0.00 79 1015.1
20260509000004 55 22 4.0 4.0 0.00 0.41 0.00 79 1015.3
20260508235524 55 18 4.0 5.0 0.00 0.41 0.00 79 1015.2
20260508235025 55 12 4.0 5.0 0.00 0.41 0.00 79 1015.2
20260508234503 55 11 5.0 5.0 0.00 0.41 0.00 80 1015.0
20260508234004 55 17 5.0 6.0 0.00 0.41 0.00 80 1015.1
20260508233504 55 20 5.0 6.0 0.00 0.41 0.00 80 1015.2
20260508233003 55 14 5.0 6.0 0.00 0.41 0.00 79 1015.1
20260508232504 55 11 5.0 5.0 0.00 0.41 0.00 79 1015.0
20260508232003 55 12 5.0 8.0 0.00 0.41 0.00 79 1015.2
20260508231003 55 15 6.0 8.0 0.00 0.41 0.00 80 1014.9
20260508230503 55 14 5.0 6.0 0.00 0.41 0.00 80 1015.0
20260508230003 55 12 5.0 6.0 0.00 0.41 0.00 80 1014.9
20260508225503 55 12 5.0 6.0 0.00 0.41 0.00 80 1015.1
20260508225003 55 14 4.0 6.0 0.00 0.41 0.00 80 1015.0
20260508224503 55 7 2.0 5.0 0.00 0.41 0.00 80 1015.2
20260508224003 55 6 1.0 2.0 0.00 0.41 0.00 80 1015.3
20260508223503 55 11 1.0 2.0 0.00 0.41 0.00 79 1015.2
20260508223003 55 17 0.0 2.0 0.00 0.41 0.00 79 1015.2
20260508222503 55 18 0.0 2.0 0.00 0.41 0.00 79 1015.2
20260508222003 55 21 1.0 3.0 0.00 0.41 0.00 80 1015.2
20260508221503 56 19 2.0 3.0 0.00 0.41 0.00 80 1015.2
20260508221003 56 19 2.0 3.0 0.00 0.41 0.00 80 1015.3
20260508220503 56 22 2.0 3.0 0.00 0.41 0.00 81 1015.1
20260508220003 56 21 1.0 3.0 0.00 0.41 0.00 81 1015.2
20260508215503 56 19 1.0 2.0 0.00 0.41 0.41 80 1015.0
20260508215003 55 19 0.0 2.0 0.00 0.41 0.41 80 1015.1
20260508214503 55 360 0.0 1.0 0.00 0.41 0.41 80 1015.1
20260508214024 55 22 0.0 1.0 0.00 0.41 0.41 80 1015.0
20260508213503 55 19 0.0 1.0 0.00 0.41 0.41 80 1015.1
20260508213003 55 17 0.0 1.0 0.00 0.41 0.41 80 1015.1
20260508212503 56 351 1.0 2.0 0.00 0.41 0.41 80 1015.2
20260508212003 56 3 2.0 3.0 0.00 0.41 0.41 79 1015.0
20260508211503 56 7 3.0 4.0 0.00 0.41 0.41 79 1015.0
20260508211003 57 359 3.0 4.0 0.00 0.41 0.41 79 1015.1
20260508210524 57 1 3.0 4.0 0.00 0.41 0.41 79 1015.0
20260508210024 57 8 2.0 4.0 0.00 0.41 0.41 80 1015.0
20260508205503 57 0 0.0 0.0 0.00 0.41 0.41 79 1015.1
20260508205024 57 0 0.0 0.0 0.00 0.41 0.41 78 1014.9
20260508204503 57 0 0.0 0.0 0.00 0.41 0.41 78 1014.9
20260508204003 57 0 0.0 0.0 0.00 0.41 0.41 78 1014.9
20260508203503 57 0 0.0 0.0 0.00 0.41 0.41 78 1014.9
20260508203003 57 0 0.0 0.0 0.00 0.41 0.41 79 1014.9
20260508202503 57 0 0.0 0.0 0.00 0.41 0.41 78 1014.9
20260508202003 57 0 0.0 0.0 0.00 0.41 0.41 78 1015.0
20260508201503 57 0 0.0 0.0 0.00 0.41 0.41 78 1014.9
20260508201003 57 0 0.0 0.0 0.00 0.41 0.41 78 1014.9
20260508200503 57 0 0.0 0.0 0.00 0.41 0.41 78 1014.9
20260508200003 57 0 0.0 0.0 0.00 0.41 0.41 78 1014.8
20260508195503 57 0 0.0 0.0 0.00 0.41 0.41 77 1014.8
20260508195003 57 0 0.0 0.0 0.00 0.41 0.41 77 1014.7
20260508194524 57 0 0.0 0.0 0.00 0.41 0.41 77 1014.8
20260508194003 57 0 0.0 0.0 0.00 0.41 0.41 76 1014.6
20260508193503 57 0 0.0 0.0 0.00 0.41 0.41 76 1014.6
20260508193003 58 0 0.0 0.0 0.00 0.41 0.41 76 1014.4
20260508192524 58 0 0.0 0.0 0.00 0.41 0.41 77 1014.5
20260508192024 58 0 0.0 0.0 0.00 0.41 0.41 77 1014.3
20260508191503 58 0 0.0 0.0 0.00 0.41 0.41 76 1014.2
20260508191024 58 0 0.0 0.0 0.00 0.41 0.41 77 1014.2
20260508190503 59 0 0.0 0.0 0.00 0.41 0.41 78 1014.2
20260508190024 59 0 0.0 0.0 0.00 0.41 0.41 78 1014.0
20260508185503 59 0 0.0 0.0 0.00 0.41 0.41 78 1013.9
20260508185003 59 0 0.0 0.0 0.00 0.41 0.41 78 1013.9
20260508184504 59 0 0.0 0.0 0.00 0.41 0.41 79 1013.9
20260508184024 60 0 0.0 0.0 0.00 0.41 0.41 79 1013.9
20260508183503 60 0 0.0 0.0 0.00 0.41 0.41 78 1013.7
20260508183024 60 0 0.0 0.0 0.00 0.41 0.41 77 1013.7
20260508182503 61 0 0.0 0.0 0.00 0.41 0.41 76 1013.7
20260508182003 61 0 0.0 0.0 0.00 0.41 0.41 76 1013.7
20260508181503 62 0 0.0 0.0 0.00 0.41 0.41 76 1013.6
20260508181003 62 0 0.0 0.0 0.00 0.41 0.41 76 1013.8
20260508180503 62 0 0.0 0.0 0.00 0.41 0.41 76 1013.7
20260508180003 62 360 0.0 1.0 0.00 0.41 0.41 76 1013.9
20260508175503 62 360 0.0 1.0 0.00 0.41 0.41 77 1013.8
20260508175003 61 360 0.0 1.0 0.00 0.41 0.41 77 1013.6
20260508174503 61 0 0.0 0.0 0.00 0.41 0.41 77 1013.7
20260508174003 62 0 0.0 0.0 0.00 0.41 0.41 77 1013.8
20260508173503 62 0 0.0 0.0 0.00 0.41 0.41 76 1013.6
20260508173003 61 0 0.0 0.0 0.00 0.41 0.41 77 1013.7
20260508172503 61 0 0.0 0.0 0.00 0.41 0.41 77 1013.8
20260508172003 61 0 0.0 0.0 0.00 0.41 0.41 77 1013.7
20260508171503 61 0 0.0 0.0 0.00 0.41 0.41 77 1013.6
20260508171003 61 0 0.0 0.0 0.00 0.41 0.41 78 1013.6
20260508170503 61 0 0.0 0.0 0.00 0.41 0.41 78 1013.7
20260508170003 61 0 0.0 0.0 0.00 0.41 0.41 78 1013.6
20260508165524 62 0 0.0 0.0 0.00 0.41 0.41 78 1013.7
20260508165024 62 0 0.0 0.0 0.00 0.41 0.41 77 1013.5
20260508164524 62 0 0.0 0.0 0.00 0.41 0.41 77 1013.6
20260508164024 62 0 0.0 0.0 0.00 0.41 0.41 77 1013.8
20260508163503 62 0 0.0 0.0 0.00 0.41 0.41 77 1013.6
20260508163003 62 0 0.0 0.0 0.00 0.41 0.41 77 1013.6
20260508162503 62 0 0.0 0.0 0.00 0.41 0.41 77 1013.5
20260508162024 61 0 0.0 0.0 0.00 0.41 0.41 78 1013.4
20260508161503 61 67 0.0 1.0 0.00 0.41 0.41 79 1013.6
20260508161024 60 67 0.0 1.0 0.01 0.41 0.41 80 1013.6
20260508160503 60 0 0.0 0.0 0.01 0.41 0.41 80 1013.6
20260508160024 60 9 0.0 2.0 0.02 0.41 0.41 80 1013.6
20260508155524 60 11 1.0 2.0 0.04 0.41 0.41 80 1013.5
20260508155024 59 13 0.0 2.0 0.05 0.41 0.41 80 1013.5
20260508154524 59 341 1.0 2.0 0.06 0.41 0.41 79 1013.8
20260508154003 58 359 2.0 4.0 0.07 0.41 0.41 79 1013.6
20260508153503 58 1 3.0 4.0 0.07 0.41 0.41 78 1013.8
20260508153003 58 7 3.0 4.0 0.08 0.41 0.41 78 1013.9
20260508152503 58 25 4.0 5.0 0.09 0.41 0.41 78 1013.9
20260508152024 57 33 4.0 5.0 0.09 0.41 0.41 77 1014.1
20260508151503 57 45 4.0 6.0 0.11 0.41 0.41 77 1014.1
20260508151003 57 32 3.0 6.0 0.12 0.40 0.40 76 1014.2
20260508150503 56 19 5.0 8.0 0.13 0.40 0.40 76 1014.0
20260508150003 56 10 5.0 8.0 0.18 0.39 0.39 76 1013.9
20260508145503 56 355 4.0 6.0 0.31 0.38 0.38 76 1014.0
20260508145024 56 355 3.0 4.0 0.32 0.37 0.37 76 1014.0
20260508144503 56 359 2.0 4.0 0.32 0.35 0.35 76 1014.0
20260508144003 56 330 1.0 4.0 0.31 0.34 0.34 76 1013.9
20260508143503 56 331 2.0 4.0 0.32 0.34 0.34 75 1014.0